Retour au catalogue

KUIPER-00561

ActifCommunicationsLEO
NORAD 69624·PAYLOAD·🇺🇸 United States

Lancé Jun 17, 2026 depuis Guiana Space Centre

Loading…

Prochains Passages (prochaines 24 heures)

TLE

FraisSource: CelesTrak SupGP

Époque: Sep 14, 2026, 23:41 UTC

1 69624C 26140AJ  26257.98723380  .00001906  00000+0  24918-3 0  2571
2 69624  51.9014 336.0509 0000623 111.4213 181.0190 14.79990406    19

Suivez KUIPER-00561 en temps réel avec AllMySat

Download on the App Store